Weather History for New Castle, PA

Change the Weather History Date:

Friday, March 8, 2013

  Actual Average Record
Temperature  
Mean Temperature 32 °F -  
Max Temperature 37 °F 46 °F 75 °F (1983)
Min Temperature 26 °F 22 °F -6 °F (1986)
Degree Days  
Heating Degree Days 32    
Moisture  
Dew Point 25 °F    
Average Humidity 77    
Maximum Humidity 89    
Minimum Humidity 62    
Precipitation  
Precipitation 0.00 in - - ()
Sea Level Pressure  
Sea Level Pressure 30.44 in    
Wind  
Wind Speed 10 mph (NW)    
Max Wind Speed 15 mph    
Max Gust Speed -    
Visibility 10 miles    
Events      
Averages and records for this station are not official NWS values.
T = Trace of Precipitation, MM = Missing Value Source: NWS Daily Summary

Daily Weather History Graph

Daily Weather History Graph

Search for Another Location

Airport:

Trip Planner

Search our weather history database for the weather conditions in past years. The results will help you decide how hot, cold, wet, or windy it might be!

Date:

Astronomy

Mar. 08, 2013 Rise Set
Actual Time 6:44 AM EST 6:20 PM EST
Civil Twilight 6:16 AM EST 6:48 PM EST
Nautical Twilight 5:45 AM EST 7:20 PM EST
Astronomical Twilight 5:13 AM EST 7:52 PM EST
Moon 4:29 AM EST (3/8) 3:13 PM EST (3/8)
Length of Visible Light 12h 31m
Length of Day
11h 36m
Waning Crescent, 12% of the Moon is Illuminated
Mar 8
Waning Crescent
Mar 11
New
Mar 19
First Quarter
Mar 27
Full
Apr 3
Last Quarter

Hourly Weather History & Observations

Time (EST) Temp. Windchill Dew Point Humidity Pressure Visibility Wind Dir Wind Speed Gust Speed Precip Events Conditions
12:56 AM 29.1 °F 18.9 °F 24.1 °F 81% 30.39 in 10.0 mi North 12.7 mph - N/A   Overcast
1:56 AM 29.1 °F 20.0 °F 24.1 °F 81% 30.40 in 10.0 mi NNW 10.4 mph - N/A   Overcast
2:32 AM 28.4 °F 21.2 °F 24.8 °F 86% 30.32 in 10.0 mi NW 6.9 mph - N/A   Overcast
2:47 AM 28.4 °F 19.1 °F 23.0 °F 80% 30.31 in 10.0 mi NW 10.4 mph - N/A   Overcast
2:56 AM 28.0 °F 17.5 °F 23.0 °F 81% 30.40 in 10.0 mi NW 12.7 mph - N/A   Overcast
3:45 AM 28.4 °F 20.4 °F 23.0 °F 80% 30.32 in 10.0 mi NW 8.1 mph - 0.00 in   Overcast
3:56 AM 28.0 °F 18.6 °F 23.0 °F 81% 30.40 in 10.0 mi NW 10.4 mph - 0.00 in   Overcast
4:56 AM 28.0 °F 20.0 °F 24.1 °F 85% 30.42 in 10.0 mi NW 8.1 mph - N/A   Overcast
5:56 AM 28.0 °F 19.3 °F 24.1 °F 85% 30.44 in 10.0 mi NNW 9.2 mph - N/A   Overcast
6:56 AM 28.0 °F 20.0 °F 25.2 °F 89% 30.46 in 10.0 mi NW 8.1 mph - N/A   Overcast
7:46 AM 28.4 °F 20.4 °F 24.8 °F 86% 30.39 in 10.0 mi NW 8.1 mph - N/A   Overcast
7:56 AM 29.1 °F 21.3 °F 25.2 °F 85% 30.47 in 10.0 mi NNW 8.1 mph - N/A   Overcast
8:56 AM 29.1 °F 19.4 °F 26.1 °F 88% 30.48 in 10.0 mi North 11.5 mph - N/A   Overcast
9:56 AM 30.0 °F 20.5 °F 27.1 °F 89% 30.49 in 10.0 mi NW 11.5 mph - N/A   Overcast
10:56 AM 31.1 °F 21.9 °F 27.1 °F 85% 30.50 in 10.0 mi NW 11.5 mph - N/A   Overcast
11:56 AM 31.1 °F 23.1 °F 27.1 °F 85% 30.50 in 10.0 mi NW 9.2 mph - N/A   Overcast
12:49 PM 35.6 °F 28.6 °F 28.4 °F 75% 30.38 in 10.0 mi NNW 9.2 mph - N/A   Mostly Cloudy
12:56 PM 36.0 °F 26.7 °F 28.0 °F 73% 30.46 in 10.0 mi NW 15.0 mph - N/A   Mostly Cloudy
1:29 PM 35.6 °F 28.0 °F 26.6 °F 70% 30.37 in 10.0 mi NW 10.4 mph - N/A   Mostly Cloudy
1:56 PM 36.0 °F 27.1 °F 26.1 °F 67% 30.45 in 10.0 mi NW 13.8 mph - N/A   Overcast
2:33 PM 37.4 °F 29.8 °F 26.6 °F 65% 30.36 in 10.0 mi NNW 11.5 mph - N/A   Overcast
2:56 PM 36.9 °F 28.7 °F 26.1 °F 65% 30.45 in 10.0 mi NW 12.7 mph - N/A   Overcast
3:56 PM 36.9 °F 32.2 °F 27.1 °F 68% 30.45 in 10.0 mi Variable 5.8 mph - N/A   Overcast
4:56 PM 37.9 °F 31.5 °F 26.1 °F 62% 30.46 in 10.0 mi NW 9.2 mph - N/A   Partly Cloudy
5:56 PM 36.0 °F 29.0 °F 24.1 °F 62% 30.47 in 10.0 mi NW 9.2 mph - N/A   Clear
6:56 PM 34.0 °F 26.6 °F 23.0 °F 64% 30.48 in 10.0 mi North 9.2 mph - N/A   Clear
7:56 PM 32.0 °F 24.8 °F 23.0 °F 69% 30.50 in 10.0 mi North 8.1 mph - N/A   Clear
8:56 PM 30.0 °F 25.2 °F 22.1 °F 72% 30.49 in 10.0 mi NNE 4.6 mph - N/A   Clear
9:56 PM 29.1 °F - 22.1 °F 75% 30.49 in 10.0 mi Calm Calm - N/A   Clear
10:56 PM 28.0 °F - 21.0 °F 75% 30.50 in 10.0 mi Calm Calm - N/A   Clear
11:56 PM 26.1 °F - 21.0 °F 81% 30.51 in 7.0 mi Calm Calm - N/A   Clear